Temp
71 71 72 72 72 71 70 70 71 71 71 72 71 73 73 73 73 73 74 73 74 74 73 71 71 72 72 71 71 71 71 70 70 69 69 70 67 66 69 69 70 70 70 69 69 67 68 63 62 66 68 67 67 67 68 68 69 68 67 67 71 70 70
70 71 71 71 70 70 68 68 68 67 68 69 71 71 71 71 71 71 72 73 73 72 72 70 70 70 69 69 68 68 68 68 68 69 68 68 68 67 69 68 69 69 70 69 70 72 67 67 66 65 64 65 65 66 67 68 69 69 70 70 70 70 70
70 70 70 69 68 68 66 66 66 66 67 67 68 70 70 71 71 71 72 71 69 68 68 69 69 69 68 67 67 67 67 66 66 66 66 67 67 67 68 68 67 68 68 68 67 68 69 68 65 65 66 64 62 64 67 67 68 71 73 71 71 71 71
69 69 68 67 67 67 66 64 63 64 65 65 67 67 68 70 70 71 70 69 69 70 70 70 69 69 68 67 67 67 67 67 66 66 66 66 66 66 66 66 66 65 64 63 64 66 66 65 66 66 67 68 67 63 65 68 69 73 74 73 72 71 72
70 70 68 66 67 67 66 64 63 64 64 65 66 66 67 69 69 69 70 69 68 69 69 69 69 69 68 68 68 67 67 67 67 66 66 65 65 66 65 66 66 66 65 65 65 66 65 65 65 66 67 68 70 70 69 69 73 74 74 73 74 73 73
71 71 69 68 68 68 68 65 62 62 62 64 66 67 67 69 69 69 69 69 68 69 70 70 69 69 68 68 67 66 66 65 65 64 64 64 65 65 65 66 66 66 65 66 66 65 66 66 65 64 68 69 65 68 71 71 70 75 74 74 75 75 74
71 71 70 69 67 65 66 63 62 63 64 65 67 68 69 70 71 71 70 69 69 69 69 68 68 68 68 67 67 66 65 65 65 64 64 64 64 65 66 65 65 66 65 66 65 66 64 63 63 61 62 67 66 68 71 73 72 70 71 75 76 75 74
71 71 70 69 65 63 63 63 64 65 66 67 70 70 71 71 71 70 69 68 68 68 68 67 67 67 67 67 67 66 65 65 65 64 64 63 63 64 64 65 64 65 65 65 65 65 66 64 63 62 62 61 64 66 66 70 71 69 68 72 75 74 73
71 71 69 67 65 64 64 64 64 65 67 68 71 71 71 70 69 68 67 67 67 67 67 67 67 67 67 66 66 65 65 66 64 64 64 63 63 63 64 65 64 64 64 65 65 64 65 65 65 64 63 61 59 60 63 63 64 66 71 68 72 74 73
70 69 67 66 65 64 65 64 63 65 66 67 68 70 69 69 67 66 66 66 66 67 67 67 67 67 67 66 65 65 64 66 65 64 64 64 64 64 64 64 64 64 64 64 64 65 65 65 66 65 65 62 61 59 57 59 61 61 67 69 66 70 73
70 69 68 68 67 64 63 62 63 64 65 66 68 68 67 66 66 67 67 67 67 67 67 68 68 67 67 66 66 65 65 65 64 64 65 65 64 64 64 64 64 63 64 64 64 64 64 65 65 65 65 65 63 59 59 57 59 63 63 67 68 67 71
70 69 69 68 67 66 65 64 64 65 66 67 67 67 67 67 67 67 67 67 67 67 67 67 67 66 67 65 65 65 65 66 65 64 64 64 64 64 63 63 64 63 64 64 65 65 65 65 66 67 66 66 63 62 60 60 57 63 66 62 65 70 69
70 69 69 68 68 67 67 66 65 65 66 68 68 69 69 69 68 68 68 67 67 67 67 67 67 67 66 65 65 65 65 65 65 64 64 64 64 64 63 63 63 64 65 66 65 65 65 66 66 66 66 66 65 63 62 60 58 59 65 64 65 68 70
68 69 68 69 67 66 65 65 66 67 70 70 71 69 69 69 69 68 68 68 68 67 66 66 67 66 66 66 65 65 66 67 65 64 64 63 65 65 65 64 64 64 65 65 65 66 67 67 67 66 66 66 65 64 62 60 58 58 63 66 66 66 68
70 69 68 67 65 64 64 65 68 70 70 71 72 70 70 69 69 69 69 69 68 68 67 67 67 67 66 64 64 65 65 65 65 64 64 63 63 64 64 64 63 64 65 64 65 67 68 68 68 67 66 65 65 63 64 61 59 59 57 63 64 67 67
69 68 67 66 64 63 64 65 67 69 70 70 71 71 70 69 70 70 69 68 69 68 68 68 67 66 65 65 65 64 65 65 64 63 63 63 64 64 63 63 63 63 64 63 64 64 65 66 67 66 65 66 64 63 64 63 60 58 58 60 64 65 65
68 67 66 65 63 63 65 66 68 70 72 71 70 70 70 71 70 69 69 69 69 68 67 67 67 67 67 66 65 65 65 64 65 65 64 65 65 64 63 62 63 63 64 62 63 64 64 65 65 64 64 65 65 63 63 63 63 60 60 58 62 64 65
66 65 64 63 63 64 65 66 68 71 71 70 70 70 70 71 70 70 67 69 68 68 67 67 67 67 66 66 66 65 65 65 65 65 64 64 64 64 64 63 63 64 63 62 62 63 63 62 65 64 62 63 64 63 63 63 63 63 61 59 60 64 65
65 65 63 63 62 63 64 66 67 70 72 70 70 70 70 70 70 70 70 70 69 69 68 68 68 67 67 66 65 65 65 65 64 64 64 64 65 65 64 64 63 64 63 61 61 61 62 62 63 63 61 61 63 62 61 62 63 62 62 61 61 61 63
67 65 64 63 62 63 65 66 68 69 70 70 69 69 70 70 69 70 70 70 69 68 68 68 67 67 67 66 66 65 64 64 64 64 65 65 65 65 64 64 63 62 62 61 60 59 60 60 61 61 61 60 62 61 61 62 62 62 61 61 62 62 61
67 66 64 63 63 63 64 66 68 69 70 69 69 70 70 69 69 70 69 69 69 68 67 67 67 67 67 66 65 64 64 63 63 63 64 64 64 64 64 63 62 62 61 59 59 58 58 58 60 60 60 60 60 60 60 61 61 61 60 60 60 60 61
65 64 63 62 62 62 64 67 68 69 69 69 69 70 70 70 69 69 69 68 68 67 67 66 67 67 66 65 65 64 64 63 63 63 63 63 64 64 64 63 61 60 58 55 51 53 53 52 57 58 58 59 58 58 59 59 60 60 59 59 59 60 59
63 63 62 61 62 63 65 66 68 68 69 69 70 70 70 69 70 68 67 68 67 66 65 66 58 55 59 65 64 64 63 63 63 63 63 62 63 63 62 61 59 57 55 53 51 47 45 48 50 54 56 57 56 57 57 57 58 58 57 57 58 57 56
62 61 61 62 62 63 64 65 66 67 68 68 68 69 68 68 68 68 67 67 65 65 65 62 47 46 47 54 63 62 62 62 63 63 63 62 61 62 62 62 60 57 56 54 54 45 45 44 44 45 46 48 51 54 55 55 56 57 56 56 57 57 56
63 63 63 63 64 65 65 66 67 67 67 67 67 68 67 67 67 67 67 66 64 64 63 50 45 45 49 45 49 60 62 62 62 62 63 63 63 62 62 61 61 61 61 61 61 56 50 45 43 42 42 42 42 43 45 52 54 55 54 54 55 56 56
62 62 63 64 64 65 65 66 67 67 66 66 67 66 67 66 66 66 66 65 64 64 62 45 44 45 46 47 45 50 64 63 62 63 63 63 63 62 62 61 61 62 63 59 60 63 63 58 47 44 45 44 44 43 41 39 42 53 56 55 55 55 56
63 64 64 64 64 65 66 66 66 67 67 66 65 65 65 65 65 65 65 64 62 61 58 46 44 44 46 44 43 46 65 63 63 63 63 63 63 63 63 62 61 61 62 62 61 59 60 61 63 61 58 57 57 53 45 42 40 40 46 54 57 55 57
65 65 65 65 65 66 66 66 66 66 66 65 64 64 64 64 64 64 64 62 58 55 54 44 44 43 45 44 42 45 62 63 63 62 63 63 63 63 63 63 63 62 61 60 58 52 56 59 60 62 62 62 63 62 59 59 59 61 60 59 59 58 58
66 67 66 66 65 66 66 65 65 65 65 65 65 65 65 65 64 63 62 61 58 56 53 42 42 43 43 43 42 56 61 62 62 62 62 63 63 63 63 63 63 62 61 59 48 38 44 52 57 61 61 62 63 63 64 59 53 54 58 60 60 60 60
67 67 67 67 67 67 66 67 65 66 65 64 64 64 64 63 63 61 61 59 57 57 54 44 42 42 42 42 46 58 61 63 63 62 62 62 64 64 64 64 64 63 61 59 45 38 39 42 57 61 61 61 62 62 62 63 50 44 44 45 45 45 44
68 68 68 66 69 67 68 67 65 66 64 63 62 62 63 62 62 62 60 59 59 58 56 48 42 42 42 41 47 58 62 63 63 62 62 62 64 63 60 54 56 63 61 57 38 38 39 46 59 61 60 60 60 60 60 61 62 60 45 43 43 42 42
70 67 66 65 65 66 66 66 65 63 63 63 61 62 62 61 61 62 61 61 58 60 59 51 41 42 42 42 48 57 61 65 62 62 62 62 64 63 60 58 48 51 58 47 33 39 38 46 58 61 60 60 59 58 57 58 59 59 60 61 63 63 60
67 66 66 65 66 63 63 61 61 61 62 63 63 63 62 63 61 61 61 62 61 62 60 56 49 41 42 42 43 56 61 64 62 62 63 63 62 62 61 60 52 39 39 38 40 37 39 38 52 59 60 59 57 55 57 57 58 59 59 61 62 63 63
65 66 66 65 63 61 61 61 61 61 60 62 62 62 61 62 61 61 62 62 62 62 62 58 52 40 42 42 42 45 58 61 64 63 63 63 63 62 62 61 61 44 39 39 40 38 39 39 40 54 59 58 56 51 47 54 57 52 60 62 62 63 63
64 64 65 62 60 60 61 62 61 60 61 62 61 61 60 61 61 61 62 62 63 62 62 56 57 42 41 41 42 41 53 59 58 60 63 64 64 64 63 64 61 47 39 39 38 39 37 38 37 53 55 45 40 38 50 54 56 60 63 62 63 62 62
61 61 61 61 61 60 61 61 61 61 61 61 60 60 60 61 61 61 61 62 63 62 63 60 50 50 41 41 41 41 41 49 45 54 62 63 63 65 66 64 56 43 39 39 39 38 39 38 41 53 38 37 40 39 42 55 58 62 62 62 61 61 61
60 60 60 61 61 60 60 60 60 60 60 60 59 59 60 61 61 61 60 60 62 63 63 62 50 47 46 39 41 40 40 39 40 52 57 62 66 66 66 63 54 40 40 39 38 38 38 39 51 43 39 41 40 41 53 55 59 62 59 60 60 60 60
MSLP
1016.96 1017.08 1017.04 1017.24 1017.44 1017.80 1018.00 1018.16 1018.24 1018.44 1018.64 1018.80 1018.92 1018.76 1018.72 1018.72 1018.52 1018.60 1018.80 1019.12 1019.20 1019.36 1019.48 1019.76 1019.80 1019.64 1019.64 1019.84 1019.92 1019.88 1019.92 1020.00 1019.92 1020.04 1020.20 1020.12 1020.44 1020.72 1020.36 1020.32 1020.20 1020.20 1020.20 1020.32 1020.36 1020.52 1020.28 1021.16 1021.84 1021.72 1021.68 1021.76 1021.88 1021.92 1021.80 1021.68 1021.52 1021.48 1021.44 1021.32 1020.96 1020.88 1020.64
1016.84 1016.92 1017.28 1017.60 1017.88 1017.92 1018.28 1018.48 1018.64 1018.76 1018.76 1018.88 1019.00 1019.08 1019.00 1018.80 1018.80 1019.00 1019.24 1019.44 1019.48 1019.64 1019.76 1019.96 1020.00 1020.04 1020.24 1020.32 1020.36 1020.40 1020.48 1020.48 1020.44 1020.40 1020.44 1020.60 1020.52 1020.68 1020.44 1020.44 1020.36 1020.44 1020.36 1020.52 1020.44 1020.20 1020.64 1020.44 1020.68 1021.16 1021.56 1021.80 1021.88 1021.92 1021.88 1021.80 1021.60 1021.28 1021.12 1021.04 1020.92 1020.76 1020.52
1016.64 1017.04 1017.32 1017.60 1017.92 1018.20 1018.52 1018.80 1018.96 1019.08 1019.00 1019.08 1019.20 1019.12 1019.00 1019.00 1019.16 1019.36 1019.56 1019.84 1020.08 1020.20 1020.24 1020.28 1020.32 1020.48 1020.64 1020.72 1020.76 1020.76 1020.72 1020.84 1020.88 1020.88 1020.92 1020.92 1020.92 1020.92 1020.76 1020.80 1020.88 1020.80 1020.84 1020.92 1020.96 1020.80 1020.56 1020.64 1020.96 1021.24 1021.12 1021.32 1021.68 1021.68 1021.72 1021.68 1021.36 1020.96 1020.68 1020.68 1020.56 1020.56 1020.44
1016.60 1016.92 1017.24 1017.72 1018.00 1018.32 1018.68 1019.04 1019.24 1019.24 1019.20 1019.24 1019.24 1019.24 1019.28 1019.40 1019.52 1019.64 1019.88 1020.12 1020.20 1020.28 1020.32 1020.36 1020.52 1020.72 1020.92 1021.04 1021.08 1021.00 1021.00 1021.00 1021.08 1021.20 1021.24 1021.24 1021.20 1021.28 1021.32 1021.40 1021.52 1021.56 1021.76 1021.84 1021.80 1021.48 1021.32 1021.28 1021.00 1021.00 1020.88 1020.92 1020.92 1021.48 1021.60 1021.48 1021.16 1020.56 1020.48 1020.40 1020.44 1020.40 1020.16
1016.28 1016.64 1017.12 1017.72 1017.96 1018.24 1018.64 1019.08 1019.24 1019.28 1019.36 1019.28 1019.36 1019.52 1019.68 1019.72 1019.80 1019.96 1020.08 1020.24 1020.40 1020.48 1020.56 1020.60 1020.76 1020.88 1021.04 1021.08 1021.12 1021.12 1021.16 1021.20 1021.28 1021.36 1021.44 1021.52 1021.56 1021.64 1021.76 1021.76 1021.84 1021.92 1022.00 1022.04 1021.96 1021.84 1021.76 1021.64 1021.40 1021.04 1021.04 1020.84 1020.36 1020.60 1020.92 1020.92 1020.52 1020.36 1020.28 1020.24 1020.16 1020.04 1020.00
1016.16 1016.44 1016.92 1017.48 1017.80 1018.08 1018.40 1018.96 1019.24 1019.40 1019.24 1019.32 1019.52 1019.72 1019.84 1019.84 1019.88 1020.08 1020.16 1020.40 1020.52 1020.56 1020.64 1020.80 1021.04 1021.16 1021.20 1021.24 1021.32 1021.40 1021.48 1021.64 1021.76 1021.84 1021.92 1022.04 1022.00 1022.04 1022.12 1022.04 1022.08 1022.16 1022.28 1022.24 1022.20 1022.12 1021.96 1021.72 1021.72 1021.52 1020.96 1020.96 1021.24 1020.60 1020.40 1020.48 1020.56 1020.08 1020.20 1020.08 1020.00 1019.88 1020.00
1016.12 1016.40 1016.84 1017.32 1017.76 1018.24 1018.48 1018.92 1019.16 1019.20 1019.24 1019.40 1019.56 1019.72 1019.76 1019.72 1019.72 1019.84 1020.20 1020.52 1020.60 1020.72 1020.96 1021.20 1021.32 1021.36 1021.36 1021.40 1021.52 1021.64 1021.80 1021.96 1022.04 1022.16 1022.32 1022.40 1022.32 1022.28 1022.24 1022.40 1022.44 1022.48 1022.52 1022.48 1022.44 1022.32 1022.36 1022.28 1022.32 1022.36 1021.92 1021.04 1021.04 1020.68 1020.16 1020.04 1020.32 1020.60 1020.40 1020.08 1019.92 1019.88 1019.96
1016.04 1016.44 1016.80 1017.24 1017.84 1018.36 1018.72 1019.00 1019.16 1019.12 1019.24 1019.40 1019.32 1019.40 1019.56 1019.64 1019.96 1020.20 1020.60 1020.68 1020.80 1021.00 1021.28 1021.44 1021.52 1021.56 1021.56 1021.60 1021.76 1021.96 1022.08 1022.20 1022.36 1022.52 1022.68 1022.64 1022.68 1022.72 1022.76 1022.72 1022.76 1022.72 1022.72 1022.72 1022.68 1022.64 1022.60 1022.68 1022.68 1022.60 1022.32 1021.96 1021.12 1021.04 1020.84 1020.60 1020.52 1020.72 1020.92 1020.40 1020.04 1020.04 1020.04
1016.00 1016.44 1017.00 1017.52 1018.00 1018.36 1018.76 1018.88 1019.04 1019.12 1019.24 1019.36 1019.12 1019.28 1019.60 1019.92 1020.28 1020.64 1020.80 1020.92 1021.08 1021.32 1021.48 1021.56 1021.60 1021.64 1021.72 1021.84 1022.00 1022.20 1022.32 1022.44 1022.64 1022.72 1022.76 1022.88 1023.00 1023.08 1023.04 1022.96 1022.92 1023.04 1023.04 1023.04 1022.96 1023.08 1022.96 1022.84 1022.80 1022.72 1022.60 1022.52 1022.32 1021.80 1021.36 1021.20 1021.32 1021.12 1020.76 1020.92 1020.28 1020.16 1020.16
1016.16 1016.64 1017.24 1017.72 1018.12 1018.44 1018.92 1019.04 1019.08 1019.28 1019.44 1019.52 1019.52 1019.56 1019.88 1020.20 1020.64 1020.92 1021.00 1021.12 1021.32 1021.44 1021.52 1021.56 1021.64 1021.72 1021.84 1022.00 1022.16 1022.32 1022.52 1022.68 1022.76 1022.84 1022.96 1023.12 1023.28 1023.28 1023.28 1023.20 1023.20 1023.28 1023.36 1023.36 1023.36 1023.28 1023.20 1023.04 1022.96 1022.92 1022.84 1022.96 1022.80 1022.48 1022.40 1021.80 1021.68 1021.72 1021.16 1020.96 1021.00 1020.44 1020.28
1016.28 1016.76 1017.16 1017.60 1018.08 1018.68 1019.12 1019.16 1019.40 1019.68 1019.68 1019.64 1019.60 1019.80 1020.16 1020.60 1020.84 1020.92 1021.04 1021.16 1021.32 1021.44 1021.52 1021.60 1021.72 1021.84 1021.96 1022.16 1022.28 1022.48 1022.72 1022.80 1022.88 1023.04 1023.16 1023.28 1023.40 1023.40 1023.44 1023.44 1023.52 1023.64 1023.64 1023.56 1023.60 1023.52 1023.40 1023.24 1023.12 1023.08 1023.00 1022.92 1023.00 1023.04 1022.84 1022.60 1021.96 1021.68 1021.64 1021.20 1021.08 1020.96 1020.44
1016.32 1016.80 1017.16 1017.60 1018.12 1018.64 1019.00 1019.12 1019.44 1019.64 1019.64 1019.72 1019.88 1020.08 1020.28 1020.48 1020.64 1020.84 1021.00 1021.24 1021.36 1021.52 1021.60 1021.76 1021.88 1022.00 1022.12 1022.32 1022.52 1022.72 1022.80 1022.84 1023.04 1023.28 1023.44 1023.52 1023.60 1023.60 1023.68 1023.76 1023.72 1023.80 1023.72 1023.72 1023.64 1023.60 1023.52 1023.40 1023.16 1023.00 1023.04 1022.96 1023.16 1023.20 1023.12 1022.76 1022.48 1021.72 1021.68 1021.72 1021.40 1021.00 1020.72
1016.52 1016.92 1017.24 1017.60 1018.00 1018.36 1018.64 1019.04 1019.40 1019.56 1019.56 1019.60 1019.72 1019.88 1020.08 1020.28 1020.56 1020.80 1021.00 1021.24 1021.44 1021.56 1021.76 1021.84 1021.96 1022.08 1022.20 1022.40 1022.56 1022.72 1022.88 1023.00 1023.24 1023.44 1023.60 1023.64 1023.68 1023.76 1023.80 1023.84 1023.84 1023.76 1023.72 1023.60 1023.68 1023.64 1023.52 1023.48 1023.40 1023.20 1023.04 1023.00 1023.08 1023.12 1023.12 1022.96 1022.72 1022.40 1021.80 1021.84 1021.60 1021.16 1020.84
1016.64 1016.92 1017.28 1017.56 1017.84 1018.24 1018.64 1019.00 1019.24 1019.28 1019.20 1019.28 1019.44 1019.80 1020.00 1020.24 1020.48 1020.72 1020.96 1021.20 1021.36 1021.60 1021.80 1021.92 1021.96 1022.08 1022.28 1022.48 1022.64 1022.80 1022.88 1023.00 1023.28 1023.56 1023.72 1023.80 1023.72 1023.72 1023.72 1023.84 1023.92 1023.96 1023.84 1023.76 1023.60 1023.56 1023.44 1023.28 1023.20 1023.20 1023.16 1023.04 1023.12 1023.16 1023.24 1023.12 1022.92 1022.64 1022.00 1021.76 1021.56 1021.32 1020.92
1016.52 1016.92 1017.32 1017.60 1018.00 1018.40 1018.72 1018.96 1019.00 1019.00 1019.04 1019.24 1019.32 1019.76 1019.92 1020.20 1020.44 1020.68 1020.92 1021.12 1021.40 1021.60 1021.76 1021.88 1021.96 1022.08 1022.36 1022.68 1022.84 1022.88 1023.04 1023.16 1023.44 1023.68 1023.72 1023.84 1023.92 1023.88 1023.84 1023.80 1023.96 1024.04 1024.00 1024.00 1023.88 1023.56 1023.48 1023.28 1023.16 1023.12 1023.20 1023.24 1023.24 1023.36 1023.28 1023.32 1023.12 1022.84 1022.60 1021.96 1021.68 1021.24 1020.92
1016.48 1016.92 1017.40 1017.68 1018.08 1018.44 1018.80 1019.00 1019.00 1018.84 1019.04 1019.24 1019.40 1019.64 1019.92 1020.16 1020.36 1020.60 1020.88 1021.12 1021.32 1021.56 1021.68 1021.84 1022.00 1022.20 1022.56 1022.76 1022.92 1023.08 1023.16 1023.36 1023.64 1023.80 1023.88 1023.88 1023.92 1023.96 1023.96 1024.00 1024.04 1024.08 1024.08 1024.12 1024.08 1024.04 1023.92 1023.68 1023.48 1023.52 1023.44 1023.36 1023.40 1023.48 1023.40 1023.36 1023.28 1022.96 1022.72 1022.32 1021.80 1021.40 1021.08
1016.56 1016.92 1017.36 1017.68 1018.12 1018.44 1018.72 1018.92 1018.92 1018.60 1018.60 1019.00 1019.40 1019.64 1019.88 1020.04 1020.32 1020.56 1020.80 1021.04 1021.28 1021.48 1021.72 1021.92 1022.08 1022.32 1022.52 1022.72 1022.96 1023.12 1023.32 1023.56 1023.64 1023.68 1023.76 1023.84 1023.88 1023.92 1024.00 1024.08 1024.08 1024.08 1024.12 1024.20 1024.16 1024.08 1024.04 1023.88 1023.76 1023.84 1023.76 1023.56 1023.40 1023.52 1023.52 1023.36 1023.12 1023.08 1022.80 1022.52 1021.92 1021.60 1021.20
1016.68 1017.08 1017.28 1017.64 1018.04 1018.36 1018.56 1018.72 1018.68 1018.52 1018.76 1019.12 1019.36 1019.68 1019.84 1020.00 1020.28 1020.52 1020.80 1021.00 1021.24 1021.48 1021.72 1021.88 1022.08 1022.32 1022.56 1022.76 1022.92 1023.16 1023.36 1023.52 1023.68 1023.72 1023.84 1023.92 1023.96 1024.00 1024.08 1024.08 1024.08 1024.08 1024.16 1024.28 1024.32 1024.24 1024.20 1024.20 1023.96 1024.00 1024.08 1023.88 1023.60 1023.60 1023.52 1023.28 1023.08 1022.92 1022.76 1022.48 1022.08 1021.60 1021.36
1016.72 1016.92 1017.28 1017.64 1018.00 1018.28 1018.52 1018.64 1018.68 1018.52 1018.68 1019.12 1019.40 1019.56 1019.72 1019.92 1020.16 1020.48 1020.68 1020.88 1021.16 1021.44 1021.60 1021.84 1022.08 1022.32 1022.56 1022.76 1022.96 1023.16 1023.36 1023.64 1023.80 1023.96 1024.00 1024.00 1024.04 1024.12 1024.16 1024.16 1024.16 1024.16 1024.32 1024.48 1024.60 1024.60 1024.48 1024.36 1024.24 1024.20 1024.32 1024.20 1023.88 1023.80 1023.60 1023.28 1023.04 1022.88 1022.64 1022.40 1022.08 1021.72 1021.44
1016.32 1016.76 1017.20 1017.60 1017.96 1018.24 1018.40 1018.52 1018.56 1018.68 1018.76 1019.04 1019.32 1019.48 1019.64 1019.88 1020.16 1020.32 1020.52 1020.84 1021.12 1021.36 1021.64 1021.84 1022.08 1022.32 1022.56 1022.76 1023.00 1023.28 1023.52 1023.68 1023.84 1023.96 1023.96 1024.04 1024.12 1024.20 1024.24 1024.32 1024.36 1024.44 1024.56 1024.72 1024.88 1024.92 1024.84 1024.64 1024.48 1024.44 1024.48 1024.40 1024.16 1024.00 1023.68 1023.36 1023.12 1022.84 1022.60 1022.40 1022.04 1021.84 1021.64
1016.24 1016.68 1017.16 1017.56 1017.92 1018.16 1018.40 1018.52 1018.52 1018.64 1018.76 1019.04 1019.24 1019.40 1019.52 1019.84 1020.12 1020.28 1020.56 1020.84 1021.08 1021.40 1021.72 1021.92 1022.08 1022.32 1022.48 1022.80 1023.04 1023.32 1023.52 1023.76 1023.92 1024.04 1024.04 1024.12 1024.24 1024.32 1024.40 1024.44 1024.52 1024.72 1025.04 1025.32 1025.32 1025.32 1025.28 1025.16 1024.80 1024.64 1024.68 1024.60 1024.40 1024.16 1023.84 1023.52 1023.20 1022.92 1022.68 1022.44 1022.20 1022.04 1021.80
1016.40 1016.76 1017.16 1017.60 1017.92 1018.24 1018.40 1018.44 1018.48 1018.60 1018.80 1019.00 1019.16 1019.28 1019.48 1019.80 1020.08 1020.28 1020.64 1020.88 1021.16 1021.48 1021.72 1021.96 1022.08 1022.20 1022.48 1022.80 1023.04 1023.32 1023.52 1023.72 1023.92 1024.04 1024.12 1024.24 1024.28 1024.40 1024.52 1024.64 1024.80 1025.16 1025.60 1025.84 1025.96 1025.92 1025.92 1025.92 1025.48 1025.08 1025.00 1024.88 1024.72 1024.44 1024.16 1023.84 1023.40 1023.20 1022.92 1022.60 1022.36 1022.24 1022.04
1016.40 1016.80 1017.28 1017.64 1017.96 1018.24 1018.36 1018.44 1018.48 1018.64 1018.84 1018.96 1019.12 1019.28 1019.52 1019.80 1020.00 1020.36 1020.64 1020.92 1021.20 1021.52 1021.76 1021.96 1022.36 1022.44 1022.52 1022.72 1023.00 1023.24 1023.52 1023.72 1023.84 1023.92 1024.08 1024.20 1024.32 1024.40 1024.64 1024.88 1025.20 1025.52 1025.72 1025.80 1025.88 1025.92 1025.96 1025.96 1025.92 1025.72 1025.52 1025.28 1025.12 1024.88 1024.60 1024.32 1023.92 1023.64 1023.36 1022.96 1022.72 1022.60 1022.44
1016.44 1016.88 1017.32 1017.60 1017.92 1018.12 1018.32 1018.48 1018.56 1018.72 1018.84 1019.00 1019.16 1019.36 1019.56 1019.88 1020.08 1020.36 1020.64 1020.92 1021.32 1021.60 1021.76 1022.32 1022.76 1022.92 1023.00 1022.96 1023.04 1023.32 1023.52 1023.68 1023.76 1023.88 1024.04 1024.20 1024.28 1024.44 1024.56 1024.80 1025.08 1025.44 1025.64 1025.72 1025.76 1025.80 1025.76 1025.84 1025.80 1025.80 1025.80 1025.80 1025.68 1025.48 1025.16 1024.84 1024.48 1024.08 1023.84 1023.44 1023.04 1022.84 1022.76
1016.40 1016.84 1017.20 1017.48 1017.72 1017.88 1018.16 1018.40 1018.48 1018.64 1018.88 1019.08 1019.24 1019.44 1019.72 1019.92 1020.12 1020.40 1020.68 1021.00 1021.40 1021.64 1022.00 1022.80 1023.00 1023.24 1023.32 1023.40 1023.48 1023.32 1023.40 1023.60 1023.80 1023.88 1023.96 1024.04 1024.16 1024.24 1024.36 1024.48 1024.68 1024.88 1024.96 1024.96 1024.92 1025.32 1025.64 1025.56 1025.52 1025.48 1025.52 1025.68 1025.72 1025.72 1025.64 1025.36 1025.04 1024.48 1024.28 1023.92 1023.48 1023.24 1023.00
1016.40 1016.76 1017.00 1017.32 1017.56 1017.80 1018.08 1018.24 1018.32 1018.56 1018.92 1019.12 1019.28 1019.56 1019.76 1019.96 1020.24 1020.48 1020.72 1021.08 1021.44 1021.68 1022.36 1023.04 1023.32 1023.52 1023.64 1023.76 1023.76 1023.68 1023.24 1023.48 1023.64 1023.72 1023.84 1023.84 1023.96 1024.12 1024.20 1024.40 1024.60 1024.64 1024.80 1025.00 1024.80 1024.56 1024.56 1024.88 1025.12 1025.04 1025.08 1025.32 1025.52 1025.52 1025.52 1025.52 1025.40 1025.16 1024.60 1024.16 1023.80 1023.44 1023.24
1016.16 1016.52 1016.84 1017.16 1017.44 1017.64 1017.92 1018.00 1018.16 1018.40 1018.72 1019.20 1019.40 1019.64 1019.80 1020.04 1020.28 1020.52 1020.76 1021.00 1021.48 1021.92 1022.80 1023.36 1023.48 1023.72 1023.92 1024.00 1024.12 1024.12 1023.24 1023.40 1023.44 1023.68 1023.80 1023.92 1024.00 1023.92 1024.00 1024.16 1024.32 1024.44 1024.52 1024.64 1024.84 1025.00 1024.76 1024.44 1024.24 1024.32 1024.64 1024.92 1024.84 1025.00 1025.28 1025.36 1025.28 1025.08 1024.88 1024.48 1023.80 1023.60 1023.32
1015.80 1016.16 1016.56 1016.92 1017.24 1017.40 1017.60 1017.80 1018.12 1018.44 1018.72 1019.12 1019.36 1019.56 1019.80 1020.04 1020.28 1020.56 1020.84 1021.32 1021.96 1022.60 1023.08 1023.32 1023.56 1023.84 1024.04 1024.08 1024.28 1024.40 1023.48 1023.40 1023.52 1023.76 1023.88 1024.00 1023.96 1024.04 1024.08 1024.08 1024.04 1024.20 1024.44 1024.72 1025.20 1025.60 1025.24 1024.84 1024.52 1024.12 1024.00 1023.92 1023.80 1023.88 1024.28 1024.44 1024.44 1024.24 1024.12 1023.92 1023.72 1023.52 1023.32
1015.52 1015.88 1016.28 1016.64 1016.96 1017.16 1017.28 1017.68 1018.04 1018.40 1018.76 1019.04 1019.20 1019.44 1019.72 1020.00 1020.36 1020.72 1021.08 1021.56 1022.12 1022.68 1023.24 1023.56 1023.60 1023.84 1024.04 1024.16 1024.40 1024.32 1023.60 1023.48 1023.52 1023.76 1023.96 1024.00 1024.04 1024.04 1024.08 1024.16 1024.16 1024.20 1024.44 1024.84 1025.48 1025.68 1025.72 1025.56 1024.92 1024.04 1023.96 1023.84 1023.72 1023.56 1023.60 1023.96 1024.12 1024.16 1024.04 1023.76 1023.56 1023.36 1023.08
1015.16 1015.56 1015.92 1016.20 1016.60 1016.80 1017.12 1017.24 1018.00 1018.28 1018.68 1018.92 1019.12 1019.36 1019.68 1020.08 1020.48 1020.92 1021.28 1021.72 1022.16 1022.48 1023.16 1023.60 1023.68 1023.92 1024.12 1024.24 1024.48 1024.16 1023.48 1023.32 1023.32 1023.60 1023.80 1023.88 1023.80 1023.88 1024.00 1024.04 1023.96 1024.08 1024.32 1024.88 1025.48 1025.56 1025.60 1025.64 1024.80 1023.88 1023.88 1023.76 1023.64 1023.52 1023.60 1023.72 1023.80 1023.84 1023.80 1023.68 1023.44 1023.20 1022.96
1014.88 1015.16 1015.48 1015.92 1015.84 1016.40 1016.80 1017.28 1017.96 1018.16 1018.56 1018.76 1019.20 1019.56 1019.88 1020.24 1020.60 1021.00 1021.44 1021.72 1021.92 1022.16 1022.80 1023.48 1023.72 1023.96 1024.08 1024.28 1024.40 1024.08 1023.32 1023.04 1023.12 1023.44 1023.56 1023.76 1023.64 1023.80 1024.32 1024.64 1024.64 1024.08 1024.24 1024.96 1025.44 1025.48 1025.52 1025.32 1024.36 1023.84 1023.84 1023.68 1023.52 1023.60 1023.68 1023.76 1023.52 1023.40 1023.44 1023.28 1022.96 1022.72 1022.44
1014.48 1015.08 1015.60 1016.04 1016.20 1016.48 1016.84 1017.16 1017.68 1018.28 1018.56 1019.04 1019.40 1019.68 1020.04 1020.32 1020.68 1020.92 1021.20 1021.40 1021.68 1021.80 1022.32 1023.28 1023.76 1023.88 1024.08 1024.20 1024.40 1024.12 1023.32 1022.72 1023.00 1023.24 1023.36 1023.60 1023.44 1023.72 1024.32 1024.60 1024.92 1024.80 1024.60 1025.12 1025.36 1025.44 1025.44 1025.32 1024.40 1023.92 1023.88 1023.68 1023.68 1023.72 1024.00 1024.00 1023.72 1023.44 1023.12 1022.72 1022.24 1021.92 1021.64
1014.76 1015.20 1015.56 1015.92 1016.32 1016.96 1017.44 1018.00 1018.20 1018.48 1018.72 1018.80 1019.04 1019.32 1019.76 1019.96 1020.36 1020.68 1021.00 1021.20 1021.48 1021.48 1021.84 1022.80 1023.64 1023.84 1024.04 1024.16 1024.36 1024.04 1023.32 1022.56 1022.80 1023.04 1023.08 1023.16 1023.32 1023.48 1023.92 1024.32 1024.88 1025.16 1025.08 1025.20 1025.28 1025.40 1025.36 1025.40 1025.00 1024.28 1023.92 1023.84 1024.08 1024.08 1024.28 1024.24 1023.88 1023.52 1023.20 1022.56 1022.04 1021.72 1021.52
1015.00 1015.32 1015.64 1016.04 1016.72 1017.28 1017.68 1017.92 1018.12 1018.36 1018.64 1018.72 1019.00 1019.28 1019.64 1019.84 1020.28 1020.56 1020.76 1021.00 1021.12 1021.28 1021.48 1022.24 1023.20 1023.80 1023.92 1024.08 1024.20 1024.28 1023.72 1022.96 1022.40 1022.72 1022.84 1022.80 1022.92 1023.04 1023.36 1023.68 1024.12 1024.92 1025.08 1025.16 1025.24 1025.36 1025.36 1025.24 1025.24 1024.80 1024.08 1024.24 1024.52 1024.76 1024.96 1024.44 1023.72 1023.44 1022.80 1022.16 1021.88 1021.60 1021.40
1015.24 1015.52 1015.88 1016.52 1017.00 1017.36 1017.60 1017.84 1018.12 1018.56 1018.64 1018.76 1019.04 1019.28 1019.60 1019.76 1020.08 1020.32 1020.44 1020.76 1020.80 1021.16 1021.28 1021.84 1022.64 1023.60 1023.80 1023.96 1024.04 1024.24 1023.96 1023.12 1023.16 1023.00 1022.52 1022.60 1022.52 1022.48 1022.80 1022.84 1023.68 1024.64 1024.92 1025.04 1025.16 1025.24 1025.32 1025.24 1025.12 1024.76 1024.48 1024.80 1024.84 1024.88 1024.80 1024.48 1023.96 1023.04 1022.24 1022.08 1021.80 1021.60 1021.40
1015.40 1015.72 1016.16 1016.56 1016.92 1017.28 1017.60 1017.88 1018.12 1018.32 1018.48 1018.68 1019.00 1019.20 1019.48 1019.52 1019.76 1019.96 1020.16 1020.44 1020.56 1020.92 1021.04 1021.64 1022.28 1023.12 1023.72 1023.80 1023.84 1024.04 1024.04 1023.84 1023.60 1023.68 1022.68 1022.44 1022.36 1022.12 1022.24 1022.68 1023.84 1024.52 1024.72 1024.96 1025.08 1025.12 1025.20 1025.20 1025.12 1024.72 1024.76 1024.76 1024.76 1024.68 1024.76 1024.16 1023.44 1022.52 1022.32 1022.08 1021.84 1021.64 1021.52
1015.52 1015.88 1016.16 1016.40 1016.76 1017.12 1017.48 1017.84 1018.20 1018.36 1018.52 1018.64 1018.88 1019.08 1019.16 1019.28 1019.48 1019.68 1019.96 1020.20 1020.36 1020.60 1020.80 1021.20 1022.24 1022.72 1023.40 1023.76 1023.76 1023.84 1024.08 1024.36 1024.28 1024.00 1023.56 1022.64 1022.20 1022.16 1022.12 1022.76 1023.88 1024.48 1024.64 1024.84 1025.00 1025.04 1025.08 1025.12 1024.76 1024.60 1024.72 1024.64 1024.56 1024.56 1024.32 1023.76 1022.88 1022.36 1022.28 1022.00 1021.80 1021.72 1021.48
Wind_Speed
5 6 6 5 6 7 7 7 6 7 6 5 5 5 5 6 7 8 6 4 3 3 3 4 4 5 5 6 6 6 6 6 6 4 4 5 5 5 5 6 5 6 7 6 5 4 4 4 5 3 3 3 2 3 4 4 4 4 3 5 5 6 5
4 6 5 6 7 7 9 7 6 7 7 6 5 5 5 7 8 7 6 4 3 4 4 5 6 7 8 7 7 6 6 6 6 5 5 5 5 5 4 5 6 6 6 6 6 5 6 3 3 1 4 4 1 1 2 3 4 3 3 3 3 5 5
9 8 8 8 8 8 9 9 8 7 6 5 5 5 7 8 7 6 6 6 6 6 5 6 8 8 7 7 7 7 7 7 6 6 7 6 6 6 6 5 5 4 4 5 6 5 4 5 3 2 2 2 4 3 1 3 4 3 2 3 4 5 6
11 10 9 9 8 9 9 8 7 6 4 5 5 6 7 6 6 6 5 5 5 5 5 6 6 6 6 6 7 8 8 8 7 8 8 8 7 7 7 6 6 6 5 6 5 5 4 4 2 1 1 0 2 4 3 1 4 2 4 3 5 4 5
11 10 10 10 10 11 10 9 7 6 5 5 5 5 5 6 5 5 5 5 5 5 6 5 5 6 6 5 6 6 7 8 8 7 8 8 8 6 7 6 6 6 6 5 4 5 5 4 5 2 3 4 1 3 3 4 2 2 6 5 5 5 7
10 10 11 11 11 11 10 10 8 6 5 6 5 5 5 6 5 5 5 5 5 6 7 6 6 6 6 7 7 8 8 9 8 8 8 8 7 6 6 6 6 6 5 5 5 6 5 4 6 5 3 3 4 2 2 3 4 4 6 5 6 6 8
10 10 10 11 8 5 7 9 7 5 6 6 6 6 5 6 5 5 6 6 7 8 7 7 6 6 7 7 8 8 8 8 8 9 8 7 7 8 6 6 6 5 6 6 6 6 7 7 6 6 6 1 3 4 2 4 5 6 7 6 6 7 8
10 10 10 9 8 9 7 7 6 6 6 6 6 7 7 6 7 7 7 7 8 7 7 6 6 7 7 7 8 8 8 7 8 7 7 8 8 8 7 5 5 6 6 6 6 7 6 6 6 6 7 6 1 3 4 5 5 7 9 7 7 8 9
8 9 9 10 7 8 7 7 7 6 6 5 5 6 7 7 7 8 7 8 8 7 7 7 7 7 7 7 7 7 8 7 8 9 8 8 8 7 6 6 6 6 6 6 6 6 5 5 6 6 7 6 6 4 4 3 5 6 9 8 7 8 10
10 11 11 13 10 8 7 6 7 7 6 6 6 7 8 8 8 7 8 8 8 7 7 7 8 8 8 7 7 8 8 7 7 8 7 6 6 6 6 6 6 5 6 5 5 5 5 5 5 5 6 7 6 5 5 5 5 7 8 9 8 8 10
11 12 13 15 12 9 7 7 7 6 7 6 7 7 8 9 8 9 8 8 7 7 7 7 8 8 8 7 8 8 7 7 7 6 6 5 5 5 5 5 5 5 5 4 5 5 4 4 4 5 5 5 6 6 5 6 5 6 8 8 8 9 10
10 11 13 13 13 11 10 9 9 7 8 8 8 9 9 9 8 8 8 8 7 8 8 8 8 7 8 8 7 7 7 6 7 7 6 5 5 5 5 5 4 4 4 4 4 4 4 4 4 3 4 4 5 5 5 5 5 5 7 8 8 9 10
12 13 13 13 11 11 11 10 9 9 8 8 8 9 9 9 9 9 8 8 8 8 8 7 8 8 7 7 7 6 7 7 7 7 6 5 4 5 5 4 4 3 2 2 3 2 2 3 3 4 3 4 5 5 5 5 5 6 6 7 8 9 11
14 13 14 13 11 11 10 9 9 8 9 8 9 9 9 10 9 9 9 8 8 8 8 8 7 7 7 7 7 7 7 7 7 6 6 6 5 5 5 6 5 4 3 3 2 2 2 2 2 3 4 4 5 5 6 6 6 7 7 7 7 8 9
13 13 13 11 11 10 9 8 8 8 8 8 9 9 10 9 9 9 9 9 9 9 8 8 8 7 7 8 7 6 7 7 7 6 5 6 5 4 4 6 6 5 5 4 4 4 4 4 4 4 4 5 5 5 5 6 6 7 9 8 8 8 8
13 15 13 11 11 10 9 8 8 8 9 8 9 9 9 9 10 9 9 9 9 9 9 8 7 8 8 8 8 7 6 7 7 6 7 6 6 5 5 5 5 4 2 3 3 4 3 4 5 5 5 4 4 5 5 5 6 7 9 8 8 9 9
15 15 13 11 12 11 10 9 8 7 8 8 10 9 10 10 10 9 9 9 9 9 9 8 8 8 9 8 8 8 7 7 6 6 6 6 6 5 5 5 4 4 3 4 3 3 4 3 3 5 5 4 4 5 5 5 5 6 7 9 8 9 9
16 14 12 11 12 11 11 9 8 9 8 9 10 10 10 10 9 9 8 9 9 9 9 9 9 9 8 7 8 8 7 7 6 6 5 5 5 5 4 5 5 4 4 3 3 4 4 4 4 5 5 5 5 5 5 5 6 6 7 8 8 7 8
15 14 13 12 12 10 9 9 9 7 9 11 10 10 10 9 9 10 9 10 9 9 9 9 9 9 9 8 7 7 7 6 6 6 6 5 5 4 4 5 5 5 4 4 4 4 4 5 4 5 6 6 6 5 6 6 6 6 7 7 7 8 8
14 13 13 11 10 10 9 10 9 9 9 10 11 10 10 10 9 9 10 9 10 9 9 9 9 9 9 8 8 8 7 7 6 5 5 6 5 5 5 5 5 5 5 5 4 5 5 4 3 5 5 6 6 6 6 6 6 7 7 7 7 8 8
14 12 12 11 10 10 9 9 9 9 9 11 10 11 11 11 9 9 9 9 9 9 9 9 9 9 9 8 8 8 7 7 6 6 6 6 5 5 5 5 6 6 6 5 5 5 6 5 4 4 5 5 6 6 6 6 6 7 7 7 7 8 8
11 12 12 11 10 10 9 9 9 9 9 10 9 10 10 11 11 10 10 9 10 9 8 8 8 8 9 9 8 8 8 7 7 6 6 6 5 5 5 6 6 7 6 5 4 4 4 4 4 4 5 6 7 6 6 6 6 7 7 7 7 8 8
11 12 11 10 11 10 9 9 8 9 10 10 10 10 11 11 10 11 11 11 10 8 8 6 6 7 6 8 8 7 7 7 7 7 6 6 6 6 6 6 6 7 6 6 6 5 5 2 2 3 4 5 6 6 6 6 6 6 7 7 7 8 9
11 12 11 10 11 11 10 8 8 9 10 10 10 10 10 11 10 10 11 10 10 8 7 6 10 10 8 6 8 7 7 7 6 6 6 6 6 6 7 8 6 7 8 7 6 8 8 7 7 6 6 5 4 4 6 6 6 6 7 7 7 8 8
12 12 12 12 12 11 10 10 9 10 10 10 10 10 10 11 10 10 9 10 9 8 7 10 11 8 5 6 6 3 7 6 6 6 6 6 6 5 6 5 4 3 2 1 3 8 8 9 10 9 8 8 7 7 6 4 5 6 7 7 7 8 9
12 12 12 12 11 11 11 11 10 11 11 10 10 11 11 11 10 10 9 10 9 8 7 10 10 7 4 3 2 4 7 6 7 6 6 6 6 6 6 5 5 4 4 4 5 1 2 8 10 10 10 9 9 9 9 9 8 5 6 7 6 8 8
13 13 13 12 12 12 12 11 11 11 11 10 10 10 11 11 10 10 10 9 8 7 7 8 11 7 3 3 3 6 4 7 6 6 5 5 4 5 6 6 6 5 4 3 3 3 3 3 2 4 6 8 8 10 10 11 11 12 10 6 7 7 8
14 14 14 13 12 13 12 12 12 11 11 11 10 10 11 11 10 9 9 9 7 7 8 13 12 9 5 6 3 4 3 5 5 5 5 5 5 5 3 2 3 4 4 3 4 4 5 4 4 2 2 2 2 2 8 6 3 4 3 4 6 6 7
14 13 14 14 15 14 13 13 13 12 11 10 9 10 10 10 10 10 9 9 9 8 7 12 11 10 8 7 4 4 4 6 6 6 6 5 5 5 5 4 4 4 4 4 4 1 3 5 6 3 2 2 2 1 1 1 6 8 7 5 5 7 7
16 16 16 16 15 14 14 14 12 11 11 10 10 10 10 10 9 9 10 9 9 8 9 10 12 11 9 9 4 5 5 6 6 6 6 6 6 5 6 4 3 5 5 4 3 3 4 5 7 2 2 2 1 2 4 2 8 11 10 12 14 15 16
15 16 15 15 14 12 12 12 12 11 10 10 10 10 10 9 9 10 10 10 10 9 10 11 13 12 11 10 7 7 6 7 7 6 6 6 6 6 5 6 8 2 6 5 4 2 5 7 5 1 2 2 2 3 4 6 5 3 12 14 16 16 17
13 13 14 13 13 13 13 13 12 11 10 11 10 10 10 10 10 9 10 10 10 10 11 12 14 13 12 11 9 8 7 6 7 7 7 6 5 6 6 4 4 6 6 6 3 3 5 6 4 1 3 2 3 4 5 8 7 8 8 8 8 7 6
13 13 13 13 12 11 12 11 11 11 10 10 10 10 10 10 10 9 10 10 10 10 11 12 13 14 14 12 12 9 8 6 7 8 7 7 6 7 7 6 5 6 8 6 3 3 6 4 5 3 3 3 4 4 6 8 8 8 9 9 8 8 8
13 12 11 11 10 10 10 10 10 9 9 8 9 9 10 9 9 9 10 11 10 11 9 13 13 15 14 14 13 12 9 8 6 7 7 7 7 7 7 8 7 8 9 8 6 5 5 7 4 5 2 3 3 4 6 7 9 11 9 8 7 7 7
11 10 11 11 11 10 9 10 10 10 9 9 11 10 11 9 10 9 10 11 10 11 10 15 12 14 14 14 13 14 9 9 6 4 8 7 7 7 8 8 9 10 11 9 7 6 5 6 7 5 3 2 4 7 6 8 9 9 6 7 7 7 7
10 8 10 11 11 10 9 10 10 9 10 9 10 10 11 10 10 10 10 10 9 10 10 10 15 13 14 14 15 13 14 11 10 9 5 7 7 6 7 6 9 12 11 10 8 7 6 6 7 3 2 3 6 9 7 7 9 6 6 7 7 7 7
10 9 11 11 10 10 10 9 9 8 9 9 9 10 10 10 10 10 10 10 9 10 10 8 12 15 12 14 13 14 10 9 9 7 8 5 7 5 7 8 9 12 10 9 7 7 7 6 6 5 7 8 10 8 7 9 8 5 7 6 6 7 7
Wind_Direction
197 163 157 135 108 138 138 135 131 115 110 93 73 74 78 70 65 65 62 47 49 68 84 65 53 58 63 58 50 47 49 39 33 52 62 56 65 67 45 48 59 64 51 49 14 345 313 165 155 120 120 94 46 22 352 348 344 350 334 330 339 341 330
201 139 124 139 144 141 128 124 118 117 117 98 84 81 81 71 68 70 71 80 78 85 88 81 73 67 59 58 55 55 56 55 48 45 58 52 49 42 52 52 47 41 50 44 18 10 7 326 123 146 164 125 190 122 340 293 293 281 277 322 305 327 332
157 151 159 156 145 141 135 132 127 126 114 94 92 83 71 71 74 80 85 83 73 65 70 79 78 73 67 63 61 65 69 72 59 55 58 62 57 46 40 34 38 39 49 43 31 13 34 17 20 41 3 219 191 131 43 285 261 282 331 347 333 350 338
159 157 154 147 147 144 136 125 115 112 104 105 94 76 75 81 88 90 98 90 87 92 86 83 79 81 85 82 78 73 70 71 71 71 68 63 62 54 50 47 49 42 36 39 24 18 0 6 345 65 201 34 312 149 172 251 283 340 357 355 349 344 343
164 161 155 152 155 151 141 138 132 124 116 101 91 94 91 91 99 106 108 108 101 97 89 86 87 88 92 95 86 79 74 69 68 67 64 63 62 66 58 55 54 48 42 33 25 19 10 11 332 1 26 339 310 69 116 202 214 12 7 6 353 357 3
168 161 158 156 159 158 153 147 140 134 123 109 116 116 116 125 130 134 126 113 104 92 91 87 84 87 89 89 83 77 72 72 67 66 65 60 61 66 65 55 54 52 49 40 31 23 22 8 12 356 15 49 340 7 124 146 22 36 8 14 350 15 358
166 162 158 160 142 112 139 144 137 133 124 126 145 131 141 153 146 127 117 100 98 95 89 85 89 96 94 91 89 85 83 80 78 74 71 71 67 61 58 62 55 54 50 39 33 35 31 26 24 10 337 328 2 359 34 35 64 11 12 10 3 11 2
162 157 158 143 134 137 134 128 133 129 127 141 148 136 146 138 130 128 119 108 99 97 96 102 102 99 96 93 90 88 84 78 77 79 76 72 67 63 61 63 61 54 51 44 37 34 36 32 25 11 2 354 18 45 357 42 13 37 8 0 358 12 0
150 149 137 144 127 129 137 136 129 124 126 144 140 138 132 140 137 132 117 109 107 106 112 114 112 101 99 97 94 95 91 89 91 90 86 76 73 71 69 67 67 59 48 39 40 35 30 28 29 24 16 16 359 12 3 35 25 8 18 357 356 12 356
158 145 146 146 132 127 143 123 114 116 125 135 134 133 137 138 135 126 119 115 118 120 118 114 109 108 104 102 100 96 95 92 86 79 77 77 78 74 70 65 66 64 51 46 39 35 34 29 31 28 26 23 360 1 0 358 35 355 5 0 353 354 352
161 151 154 153 145 135 123 115 109 126 132 133 138 139 137 139 135 134 127 126 123 123 120 117 113 111 110 106 104 99 100 102 94 89 84 84 80 77 75 74 72 64 48 50 53 39 28 20 32 29 24 29 19 13 2 353 2 16 349 353 355 341 344
149 152 152 150 152 142 138 130 132 139 136 136 140 141 145 142 139 134 130 127 126 122 118 117 119 115 113 110 110 110 108 104 100 97 99 101 101 96 93 89 84 78 72 57 52 50 40 23 12 38 33 27 32 14 356 346 337 18 353 341 342 336 339
155 155 155 153 147 141 135 134 138 141 145 147 146 150 144 141 138 136 134 130 129 126 127 126 123 122 118 117 118 115 109 112 112 110 109 109 109 110 105 90 65 69 66 85 64 42 69 56 26 19 24 29 29 11 357 340 341 338 351 339 330 331 338
153 154 155 149 134 129 127 133 145 152 151 149 147 149 145 142 141 139 137 138 133 133 132 132 128 124 122 120 115 118 126 120 118 115 115 117 118 112 102 97 95 80 54 44 56 76 40 53 74 49 27 21 26 14 1 348 341 333 333 337 329 334 333
153 154 149 134 129 123 125 139 145 150 146 146 153 147 146 141 140 143 141 138 138 137 137 132 132 126 123 122 122 123 123 124 119 127 129 112 104 102 96 93 92 76 59 48 23 35 29 30 36 33 42 13 22 4 3 346 339 327 326 329 332 330 336
155 155 142 133 127 128 130 139 148 158 143 152 148 151 143 147 146 143 141 139 140 140 137 133 129 128 127 130 129 128 126 122 126 130 135 132 123 119 116 111 97 87 75 73 60 47 27 23 28 32 15 14 8 1 350 341 327 328 326 324 330 332 343
157 156 143 135 134 135 140 146 155 160 149 149 150 147 150 148 146 145 143 141 141 141 136 134 135 136 137 134 134 131 128 134 140 137 130 132 131 121 115 112 104 96 87 62 36 58 37 19 45 32 3 358 357 6 340 322 325 321 319 317 332 331 338
157 148 132 133 132 136 142 150 164 159 147 152 149 150 152 148 147 146 145 145 144 142 140 141 140 137 134 139 134 133 139 138 138 134 118 115 119 117 109 99 96 90 73 64 49 30 43 20 22 35 8 354 352 356 334 328 327 323 320 320 323 332 336
157 143 135 133 134 139 143 150 154 151 152 151 152 156 152 152 151 149 152 147 145 144 143 144 142 142 142 139 137 138 132 135 132 129 136 133 121 118 116 99 92 83 70 62 45 32 17 19 13 23 13 353 351 346 331 329 328 328 323 325 327 333 338
151 140 136 136 137 140 146 150 155 157 156 154 157 157 155 152 153 155 150 148 148 147 145 148 145 146 143 143 140 138 140 139 137 138 137 128 127 126 115 102 91 75 65 57 49 30 13 10 10 20 9 355 351 341 335 340 333 334 335 331 335 342 337
154 138 135 136 137 139 144 152 159 157 157 158 161 159 158 153 154 155 147 151 146 146 148 152 152 151 148 144 145 145 144 144 140 142 136 132 129 123 116 104 85 74 67 52 40 38 22 5 356 17 9 358 350 345 344 340 343 342 341 340 344 345 344
144 129 132 135 135 139 149 157 161 157 160 161 164 162 156 155 158 152 150 150 148 149 155 154 158 159 149 149 149 150 149 148 148 148 144 142 140 129 115 98 87 85 81 94 74 56 34 354 353 11 9 4 355 354 348 345 349 348 344 341 348 347 342
128 132 136 141 143 148 154 158 164 160 165 165 166 162 160 159 160 155 156 153 151 154 156 155 72 80 134 154 152 149 149 149 157 153 155 150 148 136 120 108 107 125 157 179 174 167 177 197 313 340 9 11 5 0 353 348 349 351 345 342 353 345 346
134 138 143 145 148 154 154 161 168 167 167 169 167 163 163 162 162 160 160 156 154 158 159 107 90 74 59 122 148 147 152 158 158 157 157 160 154 150 144 137 148 175 194 195 202 202 193 204 203 216 243 274 306 345 1 349 346 348 346 342 344 348 344
144 147 150 152 156 158 160 168 176 174 169 170 168 166 166 167 164 161 162 157 155 161 135 106 99 93 84 63 24 144 155 155 161 164 172 165 164 159 150 149 143 143 168 168 220 188 202 205 211 209 209 212 223 256 273 306 337 342 345 336 338 343 340
149 152 156 155 159 160 170 180 184 179 178 170 167 169 171 168 165 163 162 159 158 158 129 121 109 109 98 27 344 328 159 156 168 173 172 175 166 162 158 157 163 172 138 202 253 342 209 193 212 221 211 207 226 233 251 268 260 264 312 319 331 329 345
160 160 160 161 164 170 182 190 183 182 177 174 171 170 172 169 167 165 166 159 149 138 120 124 124 124 137 239 322 344 175 164 163 165 167 162 170 162 164 167 169 170 151 121 53 358 333 317 258 216 207 206 217 216 227 240 249 252 255 270 316 329 331
162 163 165 166 172 184 191 187 180 181 181 178 173 173 172 171 168 165 159 148 127 119 143 151 144 152 172 227 280 313 221 154 154 157 165 173 169 160 169 173 153 144 132 85 55 9 334 327 306 300 325 349 310 198 199 208 242 304 313 308 325 321 315
164 167 168 175 186 193 188 184 182 181 181 174 173 171 171 170 164 161 159 153 153 158 148 154 147 164 181 215 245 254 214 165 167 163 170 175 166 168 171 177 173 149 125 100 96 356 332 320 293 294 338 323 302 262 41 166 230 232 248 291 304 301 293
180 181 184 186 188 188 185 184 178 184 179 173 173 171 167 165 162 165 162 161 164 163 157 168 161 173 188 205 222 241 200 179 172 170 173 181 180 164 179 183 189 160 143 110 92 336 324 315 289 318 330 310 293 349 15 353 207 227 243 247 252 254 259
183 185 185 189 190 178 181 179 183 181 175 168 165 165 164 164 171 174 170 171 174 171 168 172 172 176 191 201 221 228 212 188 171 179 172 186 184 166 87 48 346 263 148 115 120 315 312 312 290 37 307 337 335 6 5 346 334 281 218 232 241 245 248
181 176 178 180 188 180 184 183 180 176 177 174 167 164 167 172 176 178 178 182 185 184 168 169 179 179 190 198 213 234 240 193 176 187 177 189 194 154 145 152 60 14 78 114 121 266 302 315 312 50 327 338 347 5 1 337 328 325 327 324 323 314 301
175 175 174 174 171 164 171 164 167 167 168 174 171 171 174 176 177 179 180 191 184 203 168 170 179 184 187 199 212 231 236 214 182 189 192 184 193 169 162 162 146 132 121 136 159 240 284 298 315 332 341 10 357 348 345 324 308 309 305 307 321 326 327
168 167 165 158 151 152 156 155 157 157 159 165 166 169 173 173 178 183 184 196 186 200 176 172 172 183 188 197 210 224 244 263 201 186 203 186 197 183 179 180 170 155 162 165 189 204 268 282 289 296 324 15 358 329 315 300 301 291 287 316 323 328 338
159 161 155 147 148 148 149 151 151 152 170 170 171 172 175 178 182 187 189 193 190 195 177 165 171 182 187 196 210 216 233 240 6 295 196 206 202 194 194 189 159 164 169 169 191 204 225 266 289 286 74 90 299 301 287 294 287 284 317 327 327 334 339
146 146 149 155 155 155 155 157 160 166 176 175 175 178 178 186 183 188 187 188 193 193 192 167 161 175 189 194 207 214 229 254 312 314 252 202 218 202 201 130 126 155 168 173 189 205 224 252 267 255 92 284 276 275 280 277 276 297 330 321 326 339 338
145 148 152 153 154 153 156 159 164 172 179 181 179 184 184 188 186 187 187 186 189 190 191 176 160 171 179 194 205 215 222 232 255 272 314 279 214 216 200 150 143 158 162 174 197 205 232 237 263 303 281 271 268 273 275 276 269 326 315 323 331 338 338